Location: Bussy-Saint-Georges
(48.8410°N, 2.7017°E)
Time: 22:45:36
(UTC+00:00)

Cosmos 1455 Rocket - Pass Details

Date: 18 October 2021
Orbit: 604 x 630 km, 82.5° (Epoch: 07 December)

Event Time Altitude Azimuth Distance (km) Brightness Sun altitude
Rises 18:41:09 0° 197° (SSW) 2,883 6.6 -18.4°
Reaches altitude 10° 18:43:23 10° 201° (SSW) 1,986 5.8 -18.8°
Maximum altitude 18:47:44 62° 282° (WNW) 709 3.6 -19.5°
Drops below altitude 10° 18:52:11 10° 4° (N) 2,016 5.7 -20.2°
Sets 18:54:27 0° 8° (N) 2,931 6.5 -20.6°
